Regional Weather Roundup
Issued by NWS

Home | Current Version | Previous Version | Text Only | Print | Product List | Glossary Off
Versions: 1 2 3 4 5 6 7 8 9 10 11 12 13 14 15 16 17 18 19 20 21 22 23 24 25 26 27 28 29 30 31 32 33 34 35 36 37 38 39 40 41 42 43 44 45 46 47 48 49 50

000
ASUS43 KMKX 051521
RWRWI

WISCONSIN REGIONAL WEATHER ROUNDUP
NATIONAL WEATHER SERVICE MILWAUKEE/SULLIVAN WI
900 AM CST FRI FEB 05 2016

NOTE: "FAIR" INDICATES FEW OR NO CLOUDS BELOW 12,000 FEET WITH NO
SIGNIFICANT WEATHER AND/OR OBSTRUCTIONS TO VISIBILITY.

WIZ001-002-006>008-014>016-023>028-051600-
NORTHWEST WISCONSIN

CITY           SKY/WX    TMP DP  RH WIND       PRES   REMARKS
SUPERIOR ARPT  CLOUDY     8   5  86 CALM      30.32S
ASHLAND        CLOUDY     9   7  92 SW3       30.32S
HAYWARD        CLOUDY     3  -1  83 CALM      30.29S
SIREN          MOSUNNY    4   2  89 SE3       30.32R
CUMBERLAND     MOSUNNY   -2  -8  78 CALM      30.30R
RICE LAKE      MOSUNNY   -1  -4  84 CALM      30.33S
CHETEK         MOSUNNY    0  -4  85 CALM      30.33R
LADYSMITH      MOSUNNY    2  -2  84 CALM      30.32R
EAU CLAIRE     CLOUDY     7   5  91 SW3       30.34S
MENOMONIE      CLOUDY     9   6  88 CALM      30.36R
NEW RICHMOND   CLOUDY     3  -1  85 CALM      30.34R
OSCEOLA        CLOUDY     0  -3  85 E3        30.36S
$$

WIZ003>005-009-010-017-018-051600-
NORTH CENTRAL WISCONSIN

CITY           SKY/WX    TMP DP  RH WIND       PRES   REMARKS
MANITOWISH WTR MOSUNNY    9   7  92 CALM      30.25S FOG
ARBOR VITAE    LGT SNOW  11   8  87 CALM      30.26R
WOODRUFF       LGT SNOW  11   8  87 CALM      30.26R
RHINELANDER    CLOUDY    13   9  84 NW6       30.26R WCI   4
EAGLE RIVER    SUNNY     11   7  85 NW5       30.25R WCI   2
LAND O LAKES   FLURRIES  14  11  90 CALM      30.25R
PHILLIPS       CLOUDY     3   0  88 CALM      30.27R FOG
TOMAHAWK       CLOUDY    10   8  90 CALM      30.28S
MEDFORD        CLOUDY   N/A N/A N/A CALM      30.27S HAZE
MERRILL        CLOUDY     9   6  89 CALM      30.29F
$$

WIZ029-030-035-036-043>047-051600-
CENTRAL WISCONSIN

CITY           SKY/WX    TMP DP  RH WIND       PRES   REMARKS
WAUSAU         CLOUDY    14  10  84 NW6       30.29R WCI   5
MOSINEE        SUNNY     10   9  92 CALM      30.31R
MARSHFIELD     CLOUDY     9   5  84 W6        30.29S FOG     WCI  -1
STEVENS POINT  CLOUDY    15  13  92 CALM      30.32S
WAUPACA        MOSUNNY   16  12  85 SW3       30.34F
WAUTOMA        MOSUNNY   10   7  88 CALM      30.35S
WISC RAPIDS    CLOUDY    14  11  87 CALM      30.34S FOG
CAMP DOUGLAS   PTSUNNY    7   7 100 CALM      30.34S
$$

WIZ011>013-019>022-031-037>040-048>050-051600-
NORTHEAST WISCONSIN

CITY           SKY/WX    TMP DP  RH WIND       PRES   REMARKS
ANTIGO         CLOUDY     2   0  88 CALM      30.27S FOG
SHAWANO        CLOUDY    17  14  86 W5        30.34R WCI  10
OCONTO         SUNNY     18  14  84 W5        30.33S WCI  11
STURGEON BAY   CLOUDY    19  12  73 NW8       30.34R WCI   9
GREEN BAY      CLOUDY    15  12  88 W9        30.34R WCI   3
MANITOWOC      MOSUNNY   22  18  85 NW10      30.35R WCI  11
APPLETON       MOSUNNY   14  10  85 W7        30.31R WCI   4
CLINTONVILLE   CLOUDY    18  14  86 NW3       30.33S
OSHKOSH        CLOUDY    17  12  80 W6        30.34R WCI   9
$$

WIZ032>034-041-042-053>061-051600-
SOUTHWEST WISCONSIN

CITY           SKY/WX    TMP DP  RH WIND       PRES   REMARKS
LA CROSSE      CLOUDY     4   2  91 S3        30.38S
SPARTA         MOSUNNY    4   1  88 CALM      30.37S
VIROQUA        CLOUDY    12  10  93 SW5       30.33S WCI   4
BOSCOBEL       CLOUDY    14  13  95 SW3       30.40R FOG
PRAIRIE DU CHI MOSUNNY   14  10  82 CALM      30.40R
PLATTEVILLE    CLOUDY    19  18  94 W5        30.36R WCI  12
$$

WIZ056-057-062-063-064-067-068-051600-
SOUTH CENTRAL WISCONSIN

CITY           SKY/WX    TMP DP  RH WIND       PRES   REMARKS
REEDSBURG      CLOUDY    15  13  94 CALM      30.35S
BARABOO/DELLS  CLOUDY    15  13  92 CALM      30.35S FOG
LONE ROCK      MOSUNNY   12  10  92 CALM      30.38S FOG
MINERAL POINT  CLOUDY    19  19 100 CALM      30.34S FOG
MADISON        PTSUNNY   23  16  74 NW6       30.36R WCI  16
MIDDLETON      MOSUNNY   22  17  81 CALM      30.36S
WATERTOWN      MOSUNNY   22  18  83 W5        30.36R WCI  16
MONROE         CLOUDY    25  19  80 NW7       30.35R WCI  17
JANESVILLE     CLOUDY    27  19  74 NW9       30.35S WCI  17
$$

WIZ051-052-058>065-066-070>072-051600-
SOUTHEAST WISCONSIN

CITY           SKY/WX    TMP DP  RH WIND       PRES   REMARKS
MILWAUKEE      PTSUNNY   26  18  71 NW10      30.35R WCI  16
WAUKESHA       MOSUNNY   21  18  86 NW9       30.36R WCI  11
MILWAUKEE/TIMM SUNNY    N/A N/A N/A W8        30.36R
RACINE         MOSUNNY   26  19  74 NW9       30.36S WCI  17
BURLINGTON     CLOUDY    23  17  79 N10       30.35S WCI  12
KENOSHA        CLOUDY    26  19  74 NW8       30.35R WCI  18
FOND DU LAC    CLOUDY    20  14  77 W7        30.34R WCI  11
SHEBOYGAN      MOSUNNY   20  15  81 NW12      30.35R WCI   8
WEST BEND      SUNNY     23  18  80 NW12      30.35R WCI  12
JUNEAU         CLOUDY    19  15  82 NW3       30.36R
$$

LSZ147-162-051600-
LAKE SUPERIOR

STATION/POSITION TIME  TEMP    WIND        PRES    WAVE
                       AIR SEA DIR/SP/G            HT/PER
                 (UTC) (F)     (DEG/KT/KT) (MB)    (FT/S)
DEVILS ISLAND    1500   19     200/  6/  8 1027.5R
PORT WING        1440   10     150/  3/  5   N/A
SAXON HARBOR     1400    8                 1026.4R
$$

LMZ867-665-643>646-051600-
LAKE MICHIGAN

STATION/POSITION TIME  TEMP    WIND        PRES    WAVE
                       AIR SEA DIR/SP/G            HT/PER
                 (UTC) (F)     (DEG/KT/KT) (MB)    (FT/S)
CHAMBERS ISLAND  1400   20     300/  5/  8 1026.1R
ALGOMA LAKESHORE 1440          320/  6/  9   N/A
KEWAUNEE LAKESHO 1400   19     300/  6/  8 1025.7R
SHEBOYGAN LAKESH 1500   22     300/ 13/ 16 1028.9R
PORT WASHINGTON  1400   24     310/  5/  8 1028.1R
MILWAUKEE LAKESH 1510   25     300/ 10/ 13   N/A
KENOSHA   LAKESH 1500   26     320/  8/ 11 1027.8R
$$

TC  - TEMPERATURE IN CELSIUS
VSB - VISIBILITY IN STATUTE MILES
WCI - WIND CHILL INDEX
HX  - HEAT INDEX




USA.gov is the U.S. government's official web portal to all federal, state and local government web resources and services.